Spartanburg, SC

9:23 PM EDT on June 24, 2017 (GMT -0400)
Spartanburg Downtown Memorial

Weather History for KSPA - April, 2014

Change the Weather History Date:

Monday, April 7, 2014

  Actual Average (KGSP) Record (KGSP)
Temperature  
Mean Temperature 55 °F -  
Max Temperature 62 °F 69 °F 89 °F (1967)
Min Temperature 48 °F 44 °F 28 °F (1950)
Degree Days  
Heating Degree Days 10    
Growing Degree Days 5 (Base 50)    
Moisture  
Dew Point 51 °F    
Average Humidity 95    
Maximum Humidity 100    
Minimum Humidity 63    
Precipitation  
Precipitation 0.59 in - - ()
Sea Level Pressure  
Sea Level Pressure 29.87 in    
Wind  
Wind Speed 6 mph (ENE)    
Max Wind Speed 13 mph    
Max Gust Speed 18 mph    
Visibility 6 miles    
Events Fog , Rain    
Averages and records for this station are not official NWS values.
T = Trace of Precipitation, MM = Missing Value Source: NWS Daily Summary

Daily Weather History Graph

Daily Weather History Graph

Search for Another Location

Airport or City:

Trip Planner

Search our weather history database for the weather conditions in past years. The results will help you decide how hot, cold, wet, or windy it might be!

Date:

Astronomy

Apr. 07, 2014 Rise Set
Actual Time 7:06 AM EDT 7:53 PM EDT
Civil Twilight 6:40 AM EDT 8:19 PM EDT
Nautical Twilight 6:10 AM EDT 8:49 PM EDT
Astronomical Twilight 5:39 AM EDT 9:21 PM EDT
Moon 1:07 PM EDT (4/7) 2:23 AM EDT (4/7)
Length of Visible Light 13h 38m
Length of Day
12h 47m
First Quarter, 53% of the Moon is Illuminated
Apr 7
First Quarter
Apr 15
Full
Apr 22
Last Quarter
Apr 29
New
May 6
First Quarter

Hourly Weather History & Observations

Time (EDT) Temp. Dew Point Humidity Pressure Visibility Wind Dir Wind Speed Gust Speed Precip Events Conditions
12:15 AM 55.4 °F 42.8 °F 63% 30.05 in 10.0 mi East 5.8 mph - N/A   Scattered Clouds
12:35 AM 55.4 °F 42.8 °F 63% 30.05 in 10.0 mi East 8.1 mph - N/A   Clear
12:55 AM 55.4 °F 44.6 °F 67% 30.06 in 10.0 mi East 5.8 mph - N/A   Scattered Clouds
1:15 AM 55.4 °F 44.6 °F 67% 30.05 in 10.0 mi ENE 3.5 mph - N/A   Scattered Clouds
1:35 AM 55.4 °F 44.6 °F 67% 30.03 in 10.0 mi ENE 5.8 mph - N/A   Clear
1:55 AM 55.4 °F 44.6 °F 67% 30.02 in 10.0 mi ENE 5.8 mph - N/A   Clear
2:15 AM 55.4 °F 44.6 °F 67% 30.01 in 10.0 mi NE 8.1 mph - N/A   Clear
2:35 AM 53.6 °F 44.6 °F 72% 30.00 in 10.0 mi NE 8.1 mph - N/A   Scattered Clouds
2:55 AM 53.6 °F 46.4 °F 77% 29.99 in 10.0 mi NE 10.4 mph - N/A Rain Light Rain
3:15 AM 51.8 °F 46.4 °F 82% 29.98 in 10.0 mi NNE 8.1 mph - N/A Rain Rain
3:35 AM 51.8 °F 50.0 °F 94% 29.98 in 7.0 mi NNE 6.9 mph - 0.01 in Rain Rain
3:55 AM 51.8 °F 51.8 °F 100% 29.97 in 7.0 mi NNE 9.2 mph - 0.03 in Rain Rain
4:15 AM 50.0 °F 50.0 °F 100% 29.96 in 5.0 mi NNE 9.2 mph - 0.01 in Rain Rain
4:35 AM 50.0 °F 50.0 °F 100% 29.94 in 7.0 mi NE 9.2 mph - 0.02 in   Drizzle
4:55 AM 50.0 °F 50.0 °F 100% 29.95 in 5.0 mi NE 9.2 mph - 0.03 in Rain Rain
5:35 AM 50.0 °F 50.0 °F 100% 29.95 in 3.0 mi NE 4.6 mph - 0.02 in Rain Light Rain
5:55 AM 50.0 °F 50.0 °F 100% 29.95 in 4.0 mi NNE 9.2 mph - 0.03 in Rain Rain
6:15 AM 50.0 °F 50.0 °F 100% 29.95 in 4.0 mi NE 9.2 mph - N/A Rain Heavy Rain
6:35 AM 50.0 °F 50.0 °F 100% 29.94 in 5.0 mi NE 5.8 mph - 0.01 in Rain Rain
6:55 AM 50.0 °F 50.0 °F 100% 29.95 in 7.0 mi NNE 10.4 mph 18.4 mph 0.02 in Rain Rain
7:15 AM 50.0 °F 50.0 °F 100% 29.94 in 5.0 mi NNE 12.7 mph 17.3 mph N/A Rain Heavy Rain
7:35 AM 50.0 °F 50.0 °F 100% 29.92 in 5.0 mi NE 10.4 mph - 0.01 in Rain Rain
7:55 AM 50.0 °F 50.0 °F 100% 29.93 in 4.0 mi NE 11.5 mph - 0.02 in Rain Heavy Rain
8:15 AM 48.2 °F 48.2 °F 100% 29.94 in 5.0 mi NNE 10.4 mph - 0.01 in Rain Heavy Rain
8:35 AM 48.2 °F 48.2 °F 100% 29.96 in 1.2 mi NNE 9.2 mph - 0.03 in Rain Heavy Rain
8:55 AM 48.2 °F 48.2 °F 100% 29.98 in 5.0 mi NNW 9.2 mph - 0.04 in Rain Heavy Rain
9:15 AM 48.2 °F 48.2 °F 100% 29.96 in 1.0 mi NE 9.2 mph - 0.01 in Rain Heavy Rain
9:35 AM 48.2 °F 48.2 °F 100% 29.96 in 5.0 mi NE 10.4 mph - 0.03 in Rain Rain
9:55 AM 50.0 °F 50.0 °F 100% 30.00 in 3.0 mi North 10.4 mph - 0.04 in Rain Heavy Rain
10:15 AM 50.0 °F 50.0 °F 100% 29.99 in 4.0 mi North 6.9 mph - 0.01 in Rain Heavy Rain
10:35 AM 50.0 °F 50.0 °F 100% 29.98 in 5.0 mi NE 5.8 mph - 0.03 in Rain Light Rain
10:55 AM 50.0 °F 50.0 °F 100% 29.96 in 10.0 mi East 5.8 mph - 0.04 in Rain Light Rain
11:15 AM 50.0 °F 50.0 °F 100% 29.92 in 10.0 mi ESE 9.2 mph - 0.01 in   Light Drizzle
11:35 AM 50.0 °F 50.0 °F 100% 29.89 in 10.0 mi ESE 10.4 mph - 0.02 in Rain Light Rain
11:55 AM 50.0 °F 50.0 °F 100% 29.89 in 10.0 mi East 5.8 mph - 0.04 in Rain Light Rain
12:15 PM 50.0 °F 50.0 °F 100% 29.90 in 10.0 mi SSE 6.9 mph - 0.01 in Rain Light Rain
12:35 PM 50.0 °F 50.0 °F 100% 29.89 in 10.0 mi SE 5.8 mph - 0.02 in Rain Light Rain
1:15 PM 50.0 °F 50.0 °F 100% 29.91 in 10.0 mi Calm Calm - 0.01 in Rain Light Rain
1:35 PM 50.0 °F 50.0 °F 100% 29.90 in 1.8 mi Calm Calm - 0.02 in Rain Heavy Rain
1:55 PM 51.8 °F 51.8 °F 100% 29.87 in 4.0 mi East 4.6 mph - 0.03 in Rain Rain
2:15 PM 51.8 °F 51.8 °F 100% 29.83 in 7.0 mi ESE 8.1 mph - 0.01 in Rain Light Rain
2:35 PM 51.8 °F 51.8 °F 100% 29.83 in 10.0 mi ESE 6.9 mph - 0.01 in   Scattered Clouds
2:55 PM 51.8 °F 51.8 °F 100% 29.80 in 10.0 mi East 4.6 mph - 0.02 in Rain Light Rain
3:15 PM 53.6 °F 53.6 °F 100% 29.80 in 10.0 mi Calm Calm - 0.01 in   Mostly Cloudy
3:35 PM 53.6 °F 53.6 °F 100% 29.79 in 10.0 mi Calm Calm - 0.02 in   Mostly Cloudy
3:55 PM 53.6 °F 53.6 °F 100% 29.77 in 10.0 mi NNE 5.8 mph - 0.02 in   Mostly Cloudy
4:15 PM 53.6 °F 53.6 °F 100% 29.78 in 10.0 mi Calm Calm - N/A   Scattered Clouds
4:35 PM 53.6 °F 53.6 °F 100% 29.76 in 10.0 mi NE 3.5 mph - 0.01 in   Mostly Cloudy
4:55 PM 53.6 °F 53.6 °F 100% 29.76 in 10.0 mi Calm Calm - 0.02 in   Mostly Cloudy
5:35 PM 53.6 °F 53.6 °F 100% 29.73 in 3.0 mi Calm Calm - 0.01 in   Overcast
5:55 PM 53.6 °F 53.6 °F 100% 29.72 in 0.8 mi Calm Calm - 0.02 in Rain Light Rain
6:15 PM 55.4 °F 55.4 °F 100% 29.70 in 0.8 mi ESE 3.5 mph - 0.01 in   Light Drizzle
6:35 PM 55.4 °F 55.4 °F 100% 29.70 in 0.5 mi Calm Calm - 0.02 in Fog Fog
6:55 PM 55.4 °F 55.4 °F 100% 29.70 in 1.5 mi Calm Calm - 0.02 in   Overcast
7:15 PM 55.4 °F 55.4 °F 100% 29.70 in 3.0 mi Calm Calm - N/A   Overcast
7:35 PM 55.4 °F 55.4 °F 100% 29.70 in 2.5 mi Calm Calm - 0.01 in   Overcast
7:55 PM 55.4 °F 55.4 °F 100% 29.69 in 2.0 mi Calm Calm - 0.02 in   Overcast
8:15 PM 55.4 °F 55.4 °F 100% 29.70 in 4.0 mi Calm Calm - 0.01 in   Mostly Cloudy
8:35 PM 55.4 °F 55.4 °F 100% 29.69 in 4.0 mi Calm Calm - 0.02 in   Scattered Clouds
8:55 PM 55.4 °F 55.4 °F 100% 29.70 in 4.0 mi Calm Calm - 0.03 in   Clear
9:15 PM 55.4 °F 55.4 °F 100% 29.70 in 4.0 mi Calm Calm - 0.01 in   Clear
9:35 PM 57.2 °F 57.2 °F 100% 29.70 in 3.0 mi Calm Calm - 0.02 in   Clear
10:15 PM 57.2 °F 57.2 °F 100% 29.71 in 3.0 mi Calm Calm - 0.01 in   Clear
10:35 PM 57.2 °F 57.2 °F 100% 29.70 in 3.0 mi Calm Calm - 0.02 in   Scattered Clouds
10:55 PM 59.0 °F 59.0 °F 100% 29.70 in 5.0 mi SW 4.6 mph - 0.04 in   Scattered Clouds
11:15 PM 60.8 °F 60.8 °F 100% 29.69 in 10.0 mi SW 8.1 mph - 0.01 in   Mostly Cloudy
11:35 PM 62.6 °F 62.6 °F 100% 29.68 in 7.0 mi SSW 9.2 mph - 0.03 in Rain Rain
11:55 PM 62.6 °F 62.6 °F 100% 29.68 in 7.0 mi SW 9.2 mph 16.1 mph 0.04 in   Overcast